Flag for Germany Weather past 2 weeks in Oldenburg, Lower Saxony, Germany

Now
48 °F

Passing clouds.


Feels Like: 42 °F
Forecast: 46 / 53 °F
Wind: 18 mph from West

Location: Bremen Airport

Current Time: Oct 21, 2014 at 11:46:38 PM

Latest Report: Oct 21, 2014 at 10:50 PM


Visibility: N/A

Pressure: 29.50 "Hg

Humidity: 87%

Dew point: 45 °F

Location of OldenburgLocation

Historic Weather in Oldenburg — Graph

°F

Oldenburg temperature yesterday

Maximum temperature yesterday: 63 °F (at 1:20 PM)
Minimum temperature yesterday: 54 °F (at 10:50 PM)
Average temperature yesterday: 58 °F

Past Weeks' High & Low Weather Summary

 TemperatureHumidityPressure
High73 °F (Oct 19, 1:50 PM)100% (Oct 7, 12:50 PM)30.12 "Hg (Oct 7, 12:50 PM)
Low45 °F (Oct 11, 8:50 AM)56% (Oct 14, 2:50 PM)29.39 "Hg (Oct 21, 4:50 PM)
Average56 °F87%29.79 "Hg
* Reported Oct 6 10:20 PM — Oct 21 10:20 PM, Oldenburg, Weather by CustomWeather, © 2014

Note: Actual official high and low records may vary slightly from our data, if they occured in-between our weather recording intervals... More about our weather records

Advertising

Oldenburg weather history for previous 24 hours

 ConditionsComfort  
Time TempWeatherWind HumidityBarometerVisibility
10:20 PM
Oct 21
48 °FPassing clouds.17 mph87%29.50 "HgN/A
9:50 PM50 °FPassing clouds.18 mph82%29.47 "HgN/A
9:20 PM50 °FClear.17 mph88%29.47 "Hg10 mi
8:50 PM50 °FPartly cloudy.15 mph88%29.45 "HgN/A
8:20 PM52 °FLight rain. Partly cloudy.17 mph88%29.45 "HgN/A
7:50 PM50 °FPassing clouds.15 mph94%29.42 "HgN/A
7:20 PM52 °FPartly cloudy.13 mph88%29.42 "HgN/A
6:50 PM52 °FLight rain. Broken clouds.14 mph88%29.39 "HgN/A
6:20 PM54 °FRain. Partly sunny.15 mph94%29.39 "Hg3 mi
5:50 PM54 °FRain. Partly sunny.12 mph94%29.39 "Hg4 mi
5:20 PM54 °FRain. Partly sunny.15 mph94%29.39 "Hg4 mi
4:50 PM54 °FRain. Partly sunny.16 mph94%29.39 "Hg4 mi
4:20 PM54 °FDrizzle. Partly sunny.16 mph94%29.42 "Hg3 mi
3:50 PM54 °FDrizzle. Partly sunny.17 mph94%29.42 "Hg3 mi
3:20 PM54 °FDrizzle. Partly sunny.18 mph94%29.45 "Hg3 mi
2:50 PM55 °FDrizzle. Partly sunny.17 mph82%29.47 "Hg4 mi
2:20 PM55 °FLight rain. Partly sunny.14 mph88%29.50 "HgN/A
1:50 PM54 °FLight rain. Partly sunny.15 mph94%29.50 "Hg4 mi
1:20 PM54 °FPartly sunny.16 mph94%29.53 "Hg5 mi
12:50 PM54 °FPartly sunny.14 mph94%29.56 "Hg5 mi
12:20 PM54 °FRain. Broken clouds.15 mph94%29.59 "Hg4 mi
11:50 AM55 °FRain. Broken clouds.16 mph88%29.59 "Hg4 mi
11:20 AM55 °FLight rain. Broken clouds.15 mph88%29.62 "Hg4 mi
10:50 AM55 °FBroken clouds.13 mph88%29.65 "Hg4 mi
10:20 AM55 °FPartly sunny.14 mph88%29.65 "Hg4 mi
9:50 AM54 °FPartly sunny.13 mph94%29.68 "Hg4 mi
9:20 AM54 °FPartly sunny.12 mph94%29.68 "Hg4 mi
8:50 AM54 °FPassing clouds.13 mph94%29.68 "Hg4 mi
8:20 AM54 °FPartly cloudy.9 mph94%29.71 "Hg4 mi
7:50 AM54 °FPassing clouds.9 mph94%29.71 "Hg4 mi
7:20 AM54 °FPartly cloudy.10 mph94%29.71 "HgN/A
6:50 AM54 °FPassing clouds.10 mph94%29.71 "HgN/A
6:20 AM54 °FPassing clouds.10 mph94%29.74 "HgN/A
5:50 AM54 °FPassing clouds.10 mph94%29.74 "HgN/A
5:20 AM54 °FLight rain. Passing clouds.9 mph94%29.77 "HgN/A
4:50 AM54 °FLight rain. Passing clouds.9 mph94%29.77 "HgN/A
4:20 AM54 °FLight rain. Passing clouds.13 mph94%29.77 "HgN/A
3:50 AM54 °FLight rain. Passing clouds.9 mph94%29.80 "HgN/A
3:20 AM54 °FPassing clouds.8 mph94%29.80 "HgN/A
2:50 AM54 °FClear.7 mph94%29.80 "Hg10 mi
2:20 AM54 °FPassing clouds.6 mph94%29.83 "HgN/A
1:50 AM54 °FPartly cloudy.6 mph94%29.83 "HgN/A
1:20 AM54 °FClear.6 mph94%29.83 "Hg10 mi
12:50 AM54 °FPassing clouds.7 mph94%29.83 "HgN/A
12:20 AM54 °FPartly cloudy.7 mph94%29.86 "HgN/A
11:50 PM
Oct 20
54 °FPassing clouds.8 mph94%29.86 "HgN/A
11:20 PM54 °FPartly cloudy.8 mph94%29.86 "HgN/A
Weather by CustomWeather, © 2014

See weather overviewHow to use our weather pages